Time,TemperatureF,DewpointF,PressureIn,WindDirection,WindDirectionDegrees,WindSpeedMPH,WindSpeedGustMPH,Humidity,HourlyPrecipIn,Conditions,Clouds,dailyrainin,SolarRadiationWatts/m^2,SoftwareType,DateUTC
2013-01-09 00:00:00,47.8,45.1,29.82,North,350,1.8,5.1,90,0.00,,,-99.99,1.0,HOBO +U30 +Weather +,2013-01-09 08:00:00,
2013-01-09 00:05:00,47.7,44.9,29.82,North,351,1.8,5.1,89,0.00,,,-99.99,1.0,HOBO +U30 +Weather +,2013-01-09 08:05:00,
2013-01-09 00:10:00,47.6,44.7,29.81,North,350,2.2,5.1,89,0.00,,,-99.99,1.0,HOBO +U30 +Weather +,2013-01-09 08:10:00,
2013-01-09 00:15:00,47.4,44.6,29.80,North,352,1.8,5.1,89,0.00,,,-99.99,1.0,HOBO +U30 +Weather +,2013-01-09 08:15:00,
2013-01-09 00:20:00,47.3,44.6,29.80,North,351,1.8,6.3,90,0.00,,,-99.99,1.0,HOBO +U30 +Weather +,2013-01-09 08:20:00,
2013-01-09 00:25:00,47.3,44.7,29.80,NNW,348,2.2,5.6,90,0.00,,,-99.99,1.0,HOBO +U30 +Weather +,2013-01-09 08:25:00,
2013-01-09 00:30:00,47.2,44.8,29.80,North,350,1.8,5.1,91,0.00,,,-99.99,1.0,HOBO +U30 +Weather +,2013-01-09 08:30:00,
2013-01-09 00:35:00,47.2,44.8,29.80,North,352,1.1,5.6,91,0.00,,,-99.99,1.0,HOBO +U30 +Weather +,2013-01-09 08:35:00,
2013-01-09 00:40:00,47.2,44.9,29.80,North,354,1.8,5.6,91,0.00,,,-99.99,1.0,HOBO +U30 +Weather +,2013-01-09 08:40:00,
2013-01-09 00:45:00,47.3,45.1,29.80,North,355,1.1,4.5,91,0.00,,,-99.99,1.0,HOBO +U30 +Weather +,2013-01-09 08:45:00,
2013-01-09 00:50:00,47.3,45.1,29.80,NNW,348,1.1,4.5,91,0.00,,,-99.99,1.0,HOBO +U30 +Weather +,2013-01-09 08:50:00,
2013-01-09 00:55:00,47.4,45.2,29.81,North,350,1.1,4.5,91,0.00,,,-99.99,1.0,HOBO +U30 +Weather +,2013-01-09 08:55:00,
2013-01-09 01:00:00,47.4,45.1,29.80,North,352,1.1,4.0,91,0.00,,,-99.99,1.0,HOBO +U30 +Weather +,2013-01-09 09:00:00,
2013-01-09 01:05:00,47.5,45.0,29.80,North,350,1.1,5.6,91,0.00,,,-99.99,1.0,HOBO +U30 +Weather +,2013-01-09 09:05:00,
2013-01-09 01:10:00,47.5,45.0,29.81,North,351,1.8,6.7,90,0.00,,,-99.99,1.0,HOBO +U30 +Weather +,2013-01-09 09:10:00,
2013-01-09 01:15:00,47.6,45.1,29.81,NNW,345,1.1,5.1,90,0.00,,,-99.99,1.0,HOBO +U30 +Weather +,2013-01-09 09:15:00,
2013-01-09 01:20:00,47.4,44.9,29.80,North,352,1.1,4.0,90,0.00,,,-99.99,1.0,HOBO +U30 +Weather +,2013-01-09 09:20:00,
2013-01-09 01:25:00,47.5,45.0,29.80,NNW,348,0.7,4.0,91,0.00,,,-99.99,1.0,HOBO +U30 +Weather +,2013-01-09 09:25:00,
2013-01-09 01:30:00,47.6,45.1,29.80,North,354,1.1,4.5,91,0.00,,,-99.99,1.0,HOBO +U30 +Weather +,2013-01-09 09:30:00,
2013-01-09 01:35:00,47.6,45.0,29.79,North,352,1.1,5.1,90,0.00,,,-99.99,1.0,HOBO +U30 +Weather +,2013-01-09 09:35:00,
2013-01-09 01:40:00,47.6,45.0,29.80,North,355,1.1,4.5,90,0.00,,,-99.99,1.0,HOBO +U30 +Weather +,2013-01-09 09:40:00,
2013-01-09 01:45:00,47.5,45.0,29.80,North,354,0.7,3.4,90,0.00,,,-99.99,1.0,HOBO +U30 +Weather +,2013-01-09 09:45:00,
2013-01-09 01:50:00,47.6,45.0,29.80,North,355,1.1,5.6,90,0.00,,,-99.99,1.0,HOBO +U30 +Weather +,2013-01-09 09:50:00,
2013-01-09 02:15:00,47.2,44.8,29.81,North,354,0.7,6.3,91,0.00,,,-99.99,1.0,HOBO +U30 +Weather +,2013-01-09 10:15:00,
2013-01-09 02:45:00,46.9,44.5,29.79,NNW,348,1.1,5.6,91,0.00,,,-99.99,1.0,HOBO +U30 +Weather +,2013-01-09 10:45:00,
2013-01-09 02:50:00,46.7,44.5,29.79,NNW,348,1.1,5.6,91,0.00,,,-99.99,1.0,HOBO +U30 +Weather +,2013-01-09 10:50:00,
2013-01-09 02:55:00,46.6,44.4,29.78,North,354,0.7,4.5,92,0.00,,,-99.99,1.0,HOBO +U30 +Weather +,2013-01-09 10:55:00,
2013-01-09 03:20:00,46.6,44.5,29.78,North,350,1.1,5.1,92,0.00,,,-99.99,1.0,HOBO +U30 +Weather +,2013-01-09 11:20:00,
2013-01-09 03:25:00,46.5,44.5,29.78,North,351,0.7,4.5,92,0.00,,,-99.99,1.0,HOBO +U30 +Weather +,2013-01-09 11:25:00,
2013-01-09 03:30:00,46.4,44.4,29.79,North,351,0.7,4.5,92,0.00,,,-99.99,1.0,HOBO +U30 +Weather +,2013-01-09 11:30:00,
2013-01-09 03:35:00,46.4,44.5,29.79,NNW,347,1.1,5.1,92,0.00,,,-99.99,1.0,HOBO +U30 +Weather +,2013-01-09 11:35:00,
2013-01-09 03:40:00,46.5,44.5,29.79,North,350,1.8,5.6,92,0.00,,,-99.99,1.0,HOBO +U30 +Weather +,2013-01-09 11:40:00,
2013-01-09 04:05:00,46.2,44.4,29.78,North,352,0.7,4.0,93,0.00,,,-99.99,1.0,HOBO +U30 +Weather +,2013-01-09 12:05:00,
2013-01-09 04:20:00,46.0,44.4,29.78,North,352,0.7,4.0,93,0.00,,,-99.99,1.0,HOBO +U30 +Weather +,2013-01-09 12:20:00,
2013-01-09 04:25:00,46.0,44.4,29.78,North,352,0.7,4.5,94,0.00,,,-99.99,1.0,HOBO +U30 +Weather +,2013-01-09 12:25:00,
2013-01-09 04:30:00,46.1,44.4,29.78,North,352,1.1,4.5,93,0.00,,,-99.99,1.0,HOBO +U30 +Weather +,2013-01-09 12:30:00,
2013-01-09 04:35:00,46.0,44.3,29.78,NNW,348,1.1,5.1,93,0.00,,,-99.99,1.0,HOBO +U30 +Weather +,2013-01-09 12:35:00,
2013-01-09 04:40:00,45.9,44.2,29.77,North,354,0.7,4.0,93,0.00,,,-99.99,1.0,HOBO +U30 +Weather +,2013-01-09 12:40:00,
2013-01-09 04:45:00,46.0,44.2,29.78,North,355,1.1,5.1,93,0.00,,,-99.99,1.0,HOBO +U30 +Weather +,2013-01-09 12:45:00,
2013-01-09 04:50:00,46.0,44.2,29.78,North,352,1.1,4.0,93,0.00,,,-99.99,1.0,HOBO +U30 +Weather +,2013-01-09 12:50:00,
2013-01-09 04:55:00,45.9,44.1,29.78,North,355,0.0,3.4,93,0.00,,,-99.99,1.0,HOBO +U30 +Weather +,2013-01-09 12:55:00,
2013-01-09 05:00:00,45.8,44.0,29.77,NNW,345,0.0,1.1,93,0.00,,,-99.99,1.0,HOBO +U30 +Weather +,2013-01-09 13:00:00,
2013-01-09 05:20:00,45.4,43.9,29.77,North,1,0.0,2.2,94,0.00,,,-99.99,1.0,HOBO +U30 +Weather +,2013-01-09 13:20:00,
2013-01-09 05:25:00,45.4,43.9,29.78,North,1,0.0,1.1,94,0.00,,,-99.99,1.0,HOBO +U30 +Weather +,2013-01-09 13:25:00,
2013-01-09 05:30:00,45.4,43.8,29.78,North,355,0.0,2.2,94,0.00,,,-99.99,1.0,HOBO +U30 +Weather +,2013-01-09 13:30:00,
2013-01-09 05:35:00,45.4,43.9,29.77,North,355,0.0,0.7,94,0.00,,,-99.99,1.0,HOBO +U30 +Weather +,2013-01-09 13:35:00,
2013-01-09 05:40:00,45.4,43.9,29.77,North,355,0.0,1.8,94,0.00,,,-99.99,1.0,HOBO +U30 +Weather +,2013-01-09 13:40:00,
2013-01-09 05:45:00,45.4,44.0,29.78,NNW,338,0.0,1.1,94,0.00,,,-99.99,1.0,HOBO +U30 +Weather +,2013-01-09 13:45:00,
2013-01-09 05:50:00,45.5,44.2,29.77,NNW,341,0.0,2.9,94,0.00,,,-99.99,1.0,HOBO +U30 +Weather +,2013-01-09 13:50:00,
2013-01-09 05:55:00,45.6,44.2,29.78,NW,317,0.0,2.2,94,0.00,,,-99.99,1.0,HOBO +U30 +Weather +,2013-01-09 13:55:00,
2013-01-09 06:00:00,45.9,44.4,29.78,WNW,298,0.0,2.9,94,0.00,,,-99.99,1.0,HOBO +U30 +Weather +,2013-01-09 14:00:00,
2013-01-09 06:05:00,46.2,44.5,29.78,West,277,0.7,6.7,93,0.00,,,-99.99,1.0,HOBO +U30 +Weather +,2013-01-09 14:05:00,
2013-01-09 06:10:00,46.3,44.9,29.78,West,270,0.7,4.0,94,0.00,,,-99.99,1.0,HOBO +U30 +Weather +,2013-01-09 14:10:00,
2013-01-09 06:15:00,46.5,45.4,29.78,WNW,292,1.1,5.6,95,0.00,,,-99.99,1.0,HOBO +U30 +Weather +,2013-01-09 14:15:00,
2013-01-09 06:20:00,46.5,45.7,29.77,WNW,288,1.1,6.3,96,0.00,,,-99.99,1.0,HOBO +U30 +Weather +,2013-01-09 14:20:00,
2013-01-09 06:25:00,46.5,45.8,29.77,NW,306,0.0,3.4,97,0.00,,,-99.99,1.0,HOBO +U30 +Weather +,2013-01-09 14:25:00,
2013-01-09 06:30:00,46.6,45.9,29.77,WNW,289,0.7,5.1,97,0.00,,,-99.99,1.0,HOBO +U30 +Weather +,2013-01-09 14:30:00,
2013-01-09 06:35:00,46.5,45.9,29.77,WNW,303,0.0,2.2,97,0.00,,,-99.99,1.0,HOBO +U30 +Weather +,2013-01-09 14:35:00,
2013-01-09 06:40:00,46.3,45.8,29.77,WNW,299,0.0,1.8,97,0.00,,,-99.99,1.0,HOBO +U30 +Weather +,2013-01-09 14:40:00,
2013-01-09 06:45:00,46.4,45.9,29.77,NW,305,0.0,3.4,98,0.00,,,-99.99,1.0,HOBO +U30 +Weather +,2013-01-09 14:45:00,
2013-01-09 06:50:00,46.4,45.9,29.77,West,277,0.0,2.2,98,0.00,,,-99.99,1.0,HOBO +U30 +Weather +,2013-01-09 14:50:00,
2013-01-09 06:55:00,46.4,46.1,29.77,SW,233,0.0,2.9,98,0.00,,,-99.99,1.0,HOBO +U30 +Weather +,2013-01-09 14:55:00,
2013-01-09 07:00:00,46.6,46.2,29.77,West,260,1.1,5.6,98,0.00,,,-99.99,1.0,HOBO +U30 +Weather +,2013-01-09 15:00:00,
2013-01-09 07:05:00,46.8,46.5,29.77,SW,232,1.1,4.5,98,0.00,,,-99.99,1.0,HOBO +U30 +Weather +,2013-01-09 15:05:00,
2013-01-09 07:10:00,46.8,46.5,29.77,WSW,240,0.7,3.4,98,0.00,,,-99.99,1.0,HOBO +U30 +Weather +,2013-01-09 15:10:00,
2013-01-09 07:15:00,46.7,46.3,29.78,WSW,246,0.0,3.4,98,0.00,,,-99.99,1.0,HOBO +U30 +Weather +,2013-01-09 15:15:00,
2013-01-09 07:20:00,46.8,46.4,29.78,WSW,256,0.7,4.5,98,0.00,,,-99.99,1.0,HOBO +U30 +Weather +,2013-01-09 15:20:00,
2013-01-09 07:25:00,47.1,46.7,29.78,West,261,0.7,4.0,98,0.00,,,-99.99,1.0,HOBO +U30 +Weather +,2013-01-09 15:25:00,
2013-01-09 07:30:00,47.2,46.8,29.78,West,263,0.0,3.4,98,0.00,,,-99.99,3.0,HOBO +U30 +Weather +,2013-01-09 15:30:00,
2013-01-09 07:35:00,47.3,46.9,29.77,WSW,254,0.0,2.2,98,0.00,,,-99.99,6.0,HOBO +U30 +Weather +,2013-01-09 15:35:00,
2013-01-09 07:40:00,47.6,47.2,29.77,WSW,250,0.0,3.4,98,0.00,,,-99.99,8.0,HOBO +U30 +Weather +,2013-01-09 15:40:00,
2013-01-09 07:45:00,47.7,47.3,29.77,West,275,0.0,5.1,98,0.00,,,-99.99,16.0,HOBO +U30 +Weather +,2013-01-09 15:45:00,
2013-01-09 07:55:00,48.1,47.8,29.77,WSW,241,0.7,4.0,98,0.00,,,-99.99,26.0,HOBO +U30 +Weather +,2013-01-09 15:55:00,
2013-01-09 08:00:00,48.3,48.0,29.78,WSW,243,0.7,4.0,98,0.00,,,-99.99,29.0,HOBO +U30 +Weather +,2013-01-09 16:00:00,
2013-01-09 08:05:00,48.3,47.9,29.77,WNW,286,0.0,2.2,98,0.00,,,-99.99,36.0,HOBO +U30 +Weather +,2013-01-09 16:05:00,
2013-01-09 08:10:00,48.3,47.9,29.77,NNW,333,0.0,1.1,98,0.00,,,-99.99,39.0,HOBO +U30 +Weather +,2013-01-09 16:10:00,
2013-01-09 08:15:00,48.3,47.9,29.78,WNW,288,0.0,2.2,98,0.00,,,-99.99,42.0,HOBO +U30 +Weather +,2013-01-09 16:15:00,
2013-01-09 08:20:00,48.3,48.0,29.78,WSW,258,0.0,2.9,98,0.00,,,-99.99,43.0,HOBO +U30 +Weather +,2013-01-09 16:20:00,
2013-01-09 08:25:00,48.5,48.1,29.78,WSW,247,0.7,2.9,98,0.00,,,-99.99,36.0,HOBO +U30 +Weather +,2013-01-09 16:25:00,
2013-01-09 08:30:00,48.6,48.3,29.77,NW,324,0.7,3.4,98,0.00,,,-99.99,36.0,HOBO +U30 +Weather +,2013-01-09 16:30:00,
2013-01-09 08:35:00,48.7,48.4,29.78,NW,317,0.0,2.9,98,0.00,,,-99.99,33.0,HOBO +U30 +Weather +,2013-01-09 16:35:00,
2013-01-09 08:40:00,48.7,48.3,29.78,WSW,257,0.0,1.8,98,0.00,,,-99.99,33.0,HOBO +U30 +Weather +,2013-01-09 16:40:00,
2013-01-09 08:45:00,48.6,48.3,29.78,NW,309,0.0,3.4,98,0.00,,,-99.99,49.0,HOBO +U30 +Weather +,2013-01-09 16:45:00,
2013-01-09 08:50:00,48.7,48.3,29.78,WSW,251,0.7,3.4,98,0.00,,,-99.99,54.0,HOBO +U30 +Weather +,2013-01-09 16:50:00,
2013-01-09 08:55:00,49.0,48.5,29.78,WSW,248,0.0,0.7,98,0.00,,,-99.99,59.0,HOBO +U30 +Weather +,2013-01-09 16:55:00,
2013-01-09 09:00:00,49.0,48.4,29.78,WNW,293,0.0,3.4,97,0.00,,,-99.99,57.0,HOBO +U30 +Weather +,2013-01-09 17:00:00,
2013-01-09 09:05:00,49.2,48.5,29.78,NW,319,0.0,3.4,97,0.00,,,-99.99,74.0,HOBO +U30 +Weather +,2013-01-09 17:05:00,
2013-01-09 09:10:00,49.3,48.5,29.78,NW,309,0.7,4.0,96,0.00,,,-99.99,76.0,HOBO +U30 +Weather +,2013-01-09 17:10:00,
2013-01-09 09:15:00,49.3,48.4,29.77,WSW,250,0.7,4.5,96,0.00,,,-99.99,74.0,HOBO +U30 +Weather +,2013-01-09 17:15:00,
2013-01-09 09:20:00,49.4,48.3,29.77,SSW,209,0.0,1.1,95,0.00,,,-99.99,66.0,HOBO +U30 +Weather +,2013-01-09 17:20:00,
2013-01-09 09:25:00,49.2,48.0,29.78,SSW,206,1.8,6.3,95,0.00,,,-99.99,82.0,HOBO +U30 +Weather +,2013-01-09 17:25:00,
2013-01-09 09:30:00,49.7,48.5,29.78,WSW,253,0.0,4.0,95,0.00,,,-99.99,148.0,HOBO +U30 +Weather +,2013-01-09 17:30:00,
2013-01-09 09:35:00,50.0,48.8,29.78,West,275,0.7,4.0,95,0.00,,,-99.99,157.0,HOBO +U30 +Weather +,2013-01-09 17:35:00,
2013-01-09 09:40:00,50.3,48.9,29.78,West,274,0.0,1.8,94,0.00,,,-99.99,156.0,HOBO +U30 +Weather +,2013-01-09 17:40:00,
2013-01-09 09:45:00,50.3,48.8,29.78,North,355,0.0,1.8,94,0.00,,,-99.99,171.0,HOBO +U30 +Weather +,2013-01-09 17:45:00,
2013-01-09 09:50:00,50.6,49.2,29.78,North,11,0.0,1.8,94,0.00,,,-99.99,166.0,HOBO +U30 +Weather +,2013-01-09 17:50:00,
2013-01-09 09:55:00,50.7,49.1,29.78,North,355,0.0,2.2,94,0.00,,,-99.99,164.0,HOBO +U30 +Weather +,2013-01-09 17:55:00,
2013-01-09 10:00:00,50.1,48.4,29.77,North,0,0.0,1.8,93,0.00,,,-99.99,166.0,HOBO +U30 +Weather +,2013-01-09 18:00:00,
2013-01-09 10:05:00,50.1,48.6,29.78,North,10,0.0,2.9,94,0.00,,,-99.99,127.0,HOBO +U30 +Weather +,2013-01-09 18:05:00,
2013-01-09 10:10:00,50.3,48.7,29.77,ENE,59,0.0,1.8,94,0.00,,,-99.99,111.0,HOBO +U30 +Weather +,2013-01-09 18:10:00,
2013-01-09 10:15:00,50.1,48.2,29.77,SSW,213,2.9,6.7,93,0.00,,,-99.99,94.0,HOBO +U30 +Weather +,2013-01-09 18:15:00,
2013-01-09 10:20:00,50.2,48.1,29.77,SW,222,2.2,4.5,92,0.00,,,-99.99,121.0,HOBO +U30 +Weather +,2013-01-09 18:20:00,
2013-01-09 10:25:00,50.1,47.9,29.77,SW,220,2.2,4.5,92,0.00,,,-99.99,104.0,HOBO +U30 +Weather +,2013-01-09 18:25:00,
2013-01-09 10:30:00,50.4,48.2,29.77,SW,220,1.8,4.0,92,0.00,,,-99.99,123.0,HOBO +U30 +Weather +,2013-01-09 18:30:00,
2013-01-09 10:35:00,50.6,48.3,29.76,SW,227,1.1,4.0,91,0.00,,,-99.99,159.0,HOBO +U30 +Weather +,2013-01-09 18:35:00,
2013-01-09 10:40:00,51.3,49.0,29.76,WSW,248,0.0,1.8,91,0.00,,,-99.99,189.0,HOBO +U30 +Weather +,2013-01-09 18:40:00,
2013-01-09 10:45:00,51.9,49.2,29.76,SSW,211,0.0,2.9,90,0.00,,,-99.99,182.0,HOBO +U30 +Weather +,2013-01-09 18:45:00,
2013-01-09 10:50:00,51.6,48.7,29.75,SSW,198,0.7,4.0,89,0.00,,,-99.99,181.0,HOBO +U30 +Weather +,2013-01-09 18:50:00,
2013-01-09 10:55:00,51.9,49.1,29.75,SSW,199,0.7,3.4,90,0.00,,,-99.99,138.0,HOBO +U30 +Weather +,2013-01-09 18:55:00,
2013-01-09 11:00:00,51.2,48.3,29.75,West,260,1.1,5.6,89,0.00,,,-99.99,118.0,HOBO +U30 +Weather +,2013-01-09 19:00:00,
2013-01-09 11:05:00,51.4,48.8,29.75,SW,215,1.1,4.0,90,0.00,,,-99.99,159.0,HOBO +U30 +Weather +,2013-01-09 19:05:00,
2013-01-09 11:10:00,51.8,49.0,29.74,SW,232,1.8,5.1,90,0.00,,,-99.99,211.0,HOBO +U30 +Weather +,2013-01-09 19:10:00,
2013-01-09 11:15:00,51.6,48.5,29.74,SW,227,2.9,6.7,89,0.00,,,-99.99,179.0,HOBO +U30 +Weather +,2013-01-09 19:15:00,
2013-01-09 11:20:00,51.6,48.7,29.75,SW,225,1.8,6.3,89,0.00,,,-99.99,177.0,HOBO +U30 +Weather +,2013-01-09 19:20:00,
2013-01-09 11:25:00,51.7,48.8,29.74,WSW,247,2.2,5.6,89,0.00,,,-99.99,151.0,HOBO +U30 +Weather +,2013-01-09 19:25:00,
2013-01-09 11:30:00,51.9,49.0,29.74,WSW,248,1.1,5.6,89,0.00,,,-99.99,147.0,HOBO +U30 +Weather +,2013-01-09 19:30:00,
2013-01-09 11:35:00,51.7,48.9,29.74,SW,219,1.8,5.6,89,0.00,,,-99.99,161.0,HOBO +U30 +Weather +,2013-01-09 19:35:00,
2013-01-09 11:40:00,52.2,49.2,29.73,SW,218,1.8,6.3,89,0.00,,,-99.99,144.0,HOBO +U30 +Weather +,2013-01-09 19:40:00,
2013-01-09 11:45:00,52.0,49.1,29.73,SW,223,3.4,7.8,89,0.00,,,-99.99,139.0,HOBO +U30 +Weather +,2013-01-09 19:45:00,
2013-01-09 11:50:00,51.5,48.7,29.73,SW,230,4.0,11.2,89,0.00,,,-99.99,144.0,HOBO +U30 +Weather +,2013-01-09 19:50:00,
2013-01-09 11:55:00,51.5,48.8,29.73,SW,234,4.5,8.9,90,0.00,,,-99.99,152.0,HOBO +U30 +Weather +,2013-01-09 19:55:00,
2013-01-09 12:00:00,51.6,49.0,29.72,SW,234,3.4,7.4,90,0.00,,,-99.99,124.0,HOBO +U30 +Weather +,2013-01-09 20:00:00,
2013-01-09 12:05:00,51.9,49.3,29.72,West,268,1.8,4.0,90,0.00,,,-99.99,97.0,HOBO +U30 +Weather +,2013-01-09 20:05:00,
2013-01-09 12:10:00,51.4,48.9,29.72,SW,233,4.0,8.5,91,0.00,,,-99.99,92.0,HOBO +U30 +Weather +,2013-01-09 20:10:00,
2013-01-09 12:15:00,51.7,49.4,29.72,WSW,237,2.9,9.6,91,0.00,,,-99.99,161.0,HOBO +U30 +Weather +,2013-01-09 20:15:00,
2013-01-09 12:20:00,51.9,49.4,29.72,WSW,250,2.2,8.5,91,0.00,,,-99.99,184.0,HOBO +U30 +Weather +,2013-01-09 20:20:00,
2013-01-09 12:25:00,52.3,49.7,29.71,SW,233,2.2,6.7,90,0.00,,,-99.99,208.0,HOBO +U30 +Weather +,2013-01-09 20:25:00,
2013-01-09 12:30:00,52.0,49.4,29.71,WSW,241,4.0,9.6,90,0.00,,,-99.99,104.0,HOBO +U30 +Weather +,2013-01-09 20:30:00,
2013-01-09 12:35:00,52.0,49.6,29.70,SW,227,4.0,10.1,91,0.00,,,-99.99,122.0,HOBO +U30 +Weather +,2013-01-09 20:35:00,
2013-01-09 12:40:00,52.1,49.6,29.70,SW,233,2.2,6.7,91,0.00,,,-99.99,118.0,HOBO +U30 +Weather +,2013-01-09 20:40:00,
2013-01-09 12:45:00,51.8,49.3,29.70,SW,226,5.6,11.2,91,0.00,,,-99.99,161.0,HOBO +U30 +Weather +,2013-01-09 20:45:00,
2013-01-09 12:50:00,52.6,50.0,29.70,SW,232,5.1,11.2,90,0.00,,,-99.99,246.0,HOBO +U30 +Weather +,2013-01-09 20:50:00,
2013-01-09 12:55:00,52.4,49.6,29.70,SW,232,5.6,13.4,90,0.00,,,-99.99,186.0,HOBO +U30 +Weather +,2013-01-09 20:55:00,
2013-01-09 13:00:00,52.9,50.2,29.70,SW,225,4.0,10.7,90,0.00,,,-99.99,134.0,HOBO +U30 +Weather +,2013-01-09 21:00:00,
2013-01-09 13:05:00,52.1,49.4,29.70,SW,227,5.6,12.3,90,0.00,,,-99.99,211.0,HOBO +U30 +Weather +,2013-01-09 21:05:00,
2013-01-09 13:10:00,52.4,50.1,29.69,SW,223,5.6,10.1,91,0.00,,,-99.99,196.0,HOBO +U30 +Weather +,2013-01-09 21:10:00,
2013-01-09 13:15:00,52.4,50.1,29.70,SW,229,6.3,10.1,91,0.00,,,-99.99,203.0,HOBO +U30 +Weather +,2013-01-09 21:15:00,
2013-01-09 13:20:00,52.4,50.1,29.70,SW,229,6.3,11.2,91,0.00,,,-99.99,137.0,HOBO +U30 +Weather +,2013-01-09 21:20:00,
2013-01-09 13:25:00,52.2,50.1,29.70,SW,222,7.4,11.2,92,0.00,,,-99.99,96.0,HOBO +U30 +Weather +,2013-01-09 21:25:00,
2013-01-09 13:30:00,52.6,50.7,29.70,SW,225,6.7,13.4,93,0.00,,,-99.99,92.0,HOBO +U30 +Weather +,2013-01-09 21:30:00,
2013-01-09 13:35:00,52.8,50.6,29.70,SW,227,5.1,10.7,92,0.00,,,-99.99,219.0,HOBO +U30 +Weather +,2013-01-09 21:35:00,
2013-01-09 13:40:00,52.9,50.6,29.69,SW,230,6.3,10.1,91,0.00,,,-99.99,133.0,HOBO +U30 +Weather +,2013-01-09 21:40:00,
2013-01-09 13:45:00,52.7,50.5,29.69,SW,227,6.3,13.0,91,0.00,,,-99.99,61.0,HOBO +U30 +Weather +,2013-01-09 21:45:00,
2013-01-09 13:50:00,52.2,50.1,29.69,SW,229,6.7,13.0,92,0.00,,,-99.99,76.0,HOBO +U30 +Weather +,2013-01-09 21:50:00,
2013-01-09 13:55:00,51.5,50.1,29.68,SW,227,6.7,10.7,94,0.00,,,-99.99,71.0,HOBO +U30 +Weather +,2013-01-09 21:55:00,
2013-01-09 14:00:00,51.3,50.4,29.68,SW,226,7.4,12.3,96,0.00,,,-99.99,48.0,HOBO +U30 +Weather +,2013-01-09 22:00:00,
2013-01-09 14:05:00,51.6,51.0,29.68,SW,223,4.5,11.9,97,0.00,,,-99.99,67.0,HOBO +U30 +Weather +,2013-01-09 22:05:00,
2013-01-09 14:10:00,51.5,51.1,29.68,SW,229,4.0,7.8,98,0.00,,,-99.99,36.0,HOBO +U30 +Weather +,2013-01-09 22:10:00,
2013-01-09 14:15:00,51.3,50.9,29.68,SW,223,6.3,11.2,98,0.00,,,-99.99,29.0,HOBO +U30 +Weather +,2013-01-09 22:15:00,
2013-01-09 14:20:00,51.2,50.9,29.68,SW,230,5.6,11.2,99,0.00,,,-99.99,22.0,HOBO +U30 +Weather +,2013-01-09 22:20:00,
2013-01-09 14:25:00,50.7,50.5,29.67,SW,229,7.4,15.9,99,0.00,,,-99.99,29.0,HOBO +U30 +Weather +,2013-01-09 22:25:00,
2013-01-09 14:30:00,50.1,49.9,29.68,WSW,247,5.6,16.3,99,0.00,,,-99.99,36.0,HOBO +U30 +Weather +,2013-01-09 22:30:00,
2013-01-09 14:35:00,49.7,49.5,29.68,West,263,4.5,11.2,99,0.00,,,-99.99,54.0,HOBO +U30 +Weather +,2013-01-09 22:35:00,
2013-01-09 14:40:00,49.7,49.5,29.67,WSW,241,4.5,15.2,99,0.00,,,-99.99,49.0,HOBO +U30 +Weather +,2013-01-09 22:40:00,
2013-01-09 14:45:00,49.7,49.5,29.67,WSW,248,3.4,11.2,99,0.00,,,-99.99,71.0,HOBO +U30 +Weather +,2013-01-09 22:45:00,
2013-01-09 14:50:00,49.6,49.2,29.67,WSW,248,5.1,13.0,98,0.00,,,-99.99,57.0,HOBO +U30 +Weather +,2013-01-09 22:50:00,
2013-01-09 14:55:00,49.7,49.2,29.67,WSW,239,4.0,11.9,97,0.00,,,-99.99,57.0,HOBO +U30 +Weather +,2013-01-09 22:55:00,
2013-01-09 15:00:00,49.5,48.8,29.68,WSW,248,5.6,12.3,97,0.00,,,-99.99,54.0,HOBO +U30 +Weather +,2013-01-09 23:00:00,
2013-01-09 15:05:00,49.5,48.9,29.67,West,274,4.0,8.9,97,0.00,,,-99.99,33.0,HOBO +U30 +Weather +,2013-01-09 23:05:00,
2013-01-09 15:10:00,49.2,48.4,29.67,West,263,5.6,15.2,96,0.00,,,-99.99,26.0,HOBO +U30 +Weather +,2013-01-09 23:10:00,
2013-01-09 15:15:00,49.2,48.2,29.68,WSW,254,5.1,13.0,96,0.00,,,-99.99,23.0,HOBO +U30 +Weather +,2013-01-09 23:15:00,
2013-01-09 15:20:00,49.3,47.9,29.68,WSW,248,4.5,12.3,94,0.00,,,-99.99,27.0,HOBO +U30 +Weather +,2013-01-09 23:20:00,
2013-01-09 15:25:00,48.8,47.5,29.68,WSW,253,4.5,14.1,95,0.00,,,-99.99,26.0,HOBO +U30 +Weather +,2013-01-09 23:25:00,
2013-01-09 15:30:00,48.7,47.6,29.69,WSW,254,4.5,11.2,96,0.00,,,-99.99,23.0,HOBO +U30 +Weather +,2013-01-09 23:30:00,
2013-01-09 15:35:00,48.8,47.4,29.69,WSW,251,5.1,12.3,95,0.00,,,-99.99,36.0,HOBO +U30 +Weather +,2013-01-09 23:35:00,
2013-01-09 15:40:00,48.8,47.1,29.69,WNW,295,2.9,12.3,93,0.00,,,-99.99,53.0,HOBO +U30 +Weather +,2013-01-09 23:40:00,
2013-01-09 15:45:00,49.0,46.4,29.69,WNW,282,2.9,14.1,90,0.00,,,-99.99,53.0,HOBO +U30 +Weather +,2013-01-09 23:45:00,
2013-01-09 15:50:00,49.1,46.3,29.69,West,279,1.1,7.4,89,0.00,,,-99.99,49.0,HOBO +U30 +Weather +,2013-01-09 23:50:00,
2013-01-09 15:55:00,49.0,45.6,29.69,West,270,4.5,12.3,87,0.00,,,-99.99,44.0,HOBO +U30 +Weather +,2013-01-09 23:55:00,
2013-01-09 16:00:00,49.0,45.4,29.68,West,265,3.4,9.6,87,0.00,,,-99.99,63.0,HOBO +U30 +Weather +,2013-01-10 00:00:00,
2013-01-09 16:05:00,49.2,45.4,29.68,WNW,286,3.4,10.1,86,0.00,,,-99.99,91.0,HOBO +U30 +Weather +,2013-01-10 00:05:00,
2013-01-09 16:10:00,49.2,45.4,29.68,WNW,295,2.9,11.9,86,0.00,,,-99.99,71.0,HOBO +U30 +Weather +,2013-01-10 00:10:00,
2013-01-09 16:15:00,49.1,45.2,29.68,WNW,299,2.9,10.7,86,0.00,,,-99.99,66.0,HOBO +U30 +Weather +,2013-01-10 00:15:00,
2013-01-09 16:20:00,48.8,44.3,29.68,WNW,284,4.5,13.4,84,0.00,,,-99.99,36.0,HOBO +U30 +Weather +,2013-01-10 00:20:00,
2013-01-09 16:25:00,48.5,43.8,29.68,West,279,4.5,10.7,83,0.00,,,-99.99,34.0,HOBO +U30 +Weather +,2013-01-10 00:25:00,
2013-01-09 16:30:00,48.4,43.7,29.68,WNW,288,2.2,8.9,83,0.00,,,-99.99,28.0,HOBO +U30 +Weather +,2013-01-10 00:30:00,
2013-01-09 16:35:00,48.5,43.6,29.68,WNW,286,2.2,13.4,83,0.00,,,-99.99,19.0,HOBO +U30 +Weather +,2013-01-10 00:35:00,
2013-01-09 16:40:00,48.4,43.1,29.68,WNW,289,4.0,13.4,81,0.00,,,-99.99,14.0,HOBO +U30 +Weather +,2013-01-10 00:40:00,
2013-01-09 16:45:00,48.4,43.1,29.68,WNW,299,3.4,10.1,81,0.00,,,-99.99,8.0,HOBO +U30 +Weather +,2013-01-10 00:45:00,
2013-01-09 16:50:00,48.4,43.0,29.69,North,350,1.1,7.4,81,0.00,,,-99.99,6.0,HOBO +U30 +Weather +,2013-01-10 00:50:00,
2013-01-09 16:55:00,48.5,41.9,29.69,WNW,299,3.4,13.0,77,0.00,,,-99.99,3.0,HOBO +U30 +Weather +,2013-01-10 00:55:00,
2013-01-09 17:00:00,48.5,41.5,29.69,WNW,295,1.1,7.8,76,0.00,,,-99.99,3.0,HOBO +U30 +Weather +,2013-01-10 01:00:00,
2013-01-09 17:05:00,48.5,41.1,29.69,West,277,2.2,11.2,75,0.00,,,-99.99,2.0,HOBO +U30 +Weather +,2013-01-10 01:05:00,
2013-01-09 17:10:00,48.3,41.2,29.68,West,272,1.1,11.2,76,0.00,,,-99.99,1.0,HOBO +U30 +Weather +,2013-01-10 01:10:00,
2013-01-09 17:15:00,48.3,41.2,29.68,WSW,257,2.2,9.6,76,0.00,,,-99.99,1.0,HOBO +U30 +Weather +,2013-01-10 01:15:00,
2013-01-09 17:20:00,48.1,41.4,29.68,West,267,1.8,10.1,77,0.00,,,-99.99,1.0,HOBO +U30 +Weather +,2013-01-10 01:20:00,
2013-01-09 17:25:00,48.1,41.3,29.68,West,264,1.1,4.5,77,0.00,,,-99.99,1.0,HOBO +U30 +Weather +,2013-01-10 01:25:00,
2013-01-09 17:30:00,48.1,41.5,29.68,West,274,0.7,5.1,77,0.00,,,-99.99,1.0,HOBO +U30 +Weather +,2013-01-10 01:30:00,
2013-01-09 17:35:00,48.0,41.4,29.69,West,267,2.2,6.7,77,0.00,,,-99.99,1.0,HOBO +U30 +Weather +,2013-01-10 01:35:00,
2013-01-09 17:40:00,48.0,41.2,29.69,WSW,257,3.4,9.6,77,0.00,,,-99.99,1.0,HOBO +U30 +Weather +,2013-01-10 01:40:00,
2013-01-09 17:45:00,48.0,41.2,29.69,WSW,253,2.2,7.8,77,0.00,,,-99.99,1.0,HOBO +U30 +Weather +,2013-01-10 01:45:00,
2013-01-09 17:50:00,47.9,41.0,29.69,West,260,2.2,9.6,76,0.00,,,-99.99,1.0,HOBO +U30 +Weather +,2013-01-10 01:50:00,
2013-01-09 17:55:00,47.8,40.8,29.69,West,263,2.2,11.9,76,0.00,,,-99.99,1.0,HOBO +U30 +Weather +,2013-01-10 01:55:00,
2013-01-09 18:00:00,47.7,40.7,29.68,WNW,292,2.2,9.6,76,0.00,,,-99.99,1.0,HOBO +U30 +Weather +,2013-01-10 02:00:00,
2013-01-09 18:05:00,47.6,40.7,29.69,WSW,244,2.2,7.8,76,0.00,,,-99.99,1.0,HOBO +U30 +Weather +,2013-01-10 02:05:00,
2013-01-09 18:10:00,47.6,40.5,29.69,West,278,2.2,8.9,76,0.00,,,-99.99,1.0,HOBO +U30 +Weather +,2013-01-10 02:10:00,
2013-01-09 18:15:00,47.3,40.5,29.69,WSW,257,0.7,4.5,76,0.00,,,-99.99,1.0,HOBO +U30 +Weather +,2013-01-10 02:15:00,
2013-01-09 18:20:00,47.2,40.6,29.70,WSW,257,0.7,5.1,77,0.00,,,-99.99,1.0,HOBO +U30 +Weather +,2013-01-10 02:20:00,
2013-01-09 18:25:00,47.4,40.6,29.70,WNW,282,2.9,7.8,77,0.00,,,-99.99,1.0,HOBO +U30 +Weather +,2013-01-10 02:25:00,
2013-01-09 18:40:00,47.0,39.5,29.69,WNW,284,1.1,7.8,75,0.00,,,-99.99,1.0,HOBO +U30 +Weather +,2013-01-10 02:40:00,
2013-01-09 18:45:00,47.0,38.9,29.70,WNW,288,2.9,8.5,73,0.00,,,-99.99,1.0,HOBO +U30 +Weather +,2013-01-10 02:45:00,
2013-01-09 18:55:00,46.6,38.8,29.70,West,265,1.1,5.6,74,0.00,,,-99.99,1.0,HOBO +U30 +Weather +,2013-01-10 02:55:00,
2013-01-09 19:00:00,46.4,39.1,29.70,West,264,1.1,5.6,75,0.00,,,-99.99,1.0,HOBO +U30 +Weather +,2013-01-10 03:00:00,
2013-01-09 19:05:00,46.4,39.2,29.70,West,272,1.1,6.3,75,0.00,,,-99.99,1.0,HOBO +U30 +Weather +,2013-01-10 03:05:00,
2013-01-09 19:10:00,46.5,39.0,29.70,West,261,2.9,10.7,74,0.00,,,-99.99,1.0,HOBO +U30 +Weather +,2013-01-10 03:10:00,
2013-01-09 19:15:00,46.5,39.0,29.70,West,270,2.9,9.6,74,0.00,,,-99.99,1.0,HOBO +U30 +Weather +,2013-01-10 03:15:00,
2013-01-09 19:20:00,46.3,38.6,29.70,WSW,257,1.1,8.5,74,0.00,,,-99.99,1.0,HOBO +U30 +Weather +,2013-01-10 03:20:00,
2013-01-09 19:25:00,46.3,38.6,29.70,WSW,253,2.2,7.8,74,0.00,,,-99.99,1.0,HOBO +U30 +Weather +,2013-01-10 03:25:00,
2013-01-09 19:30:00,46.3,38.4,29.70,West,270,1.8,10.1,74,0.00,,,-99.99,1.0,HOBO +U30 +Weather +,2013-01-10 03:30:00,
2013-01-09 19:35:00,46.3,38.7,29.71,West,261,1.8,8.5,74,0.00,,,-99.99,1.0,HOBO +U30 +Weather +,2013-01-10 03:35:00,
2013-01-09 19:40:00,46.3,38.9,29.71,WSW,253,2.2,8.9,75,0.00,,,-99.99,1.0,HOBO +U30 +Weather +,2013-01-10 03:40:00,
2013-01-09 19:45:00,46.0,38.9,29.71,WSW,253,1.1,6.7,76,0.00,,,-99.99,1.0,HOBO +U30 +Weather +,2013-01-10 03:45:00,
2013-01-09 19:50:00,45.9,38.9,29.71,WNW,286,0.7,5.6,76,0.00,,,-99.99,1.0,HOBO +U30 +Weather +,2013-01-10 03:50:00,
2013-01-09 19:55:00,45.8,39.1,29.71,WNW,299,1.1,8.9,77,0.00,,,-99.99,1.0,HOBO +U30 +Weather +,2013-01-10 03:55:00,
2013-01-09 20:00:00,45.9,39.0,29.71,WNW,299,2.2,7.4,76,0.00,,,-99.99,1.0,HOBO +U30 +Weather +,2013-01-10 04:00:00,
2013-01-09 20:05:00,46.1,38.9,29.71,West,261,2.2,7.8,75,0.00,,,-99.99,1.0,HOBO +U30 +Weather +,2013-01-10 04:05:00,
2013-01-09 20:10:00,45.9,38.6,29.71,WSW,254,1.8,7.4,75,0.00,,,-99.99,1.0,HOBO +U30 +Weather +,2013-01-10 04:10:00,
2013-01-09 20:15:00,46.0,38.2,29.71,WNW,285,2.9,9.6,73,0.00,,,-99.99,1.0,HOBO +U30 +Weather +,2013-01-10 04:15:00,
2013-01-09 20:20:00,46.1,38.1,29.72,West,264,2.2,7.4,73,0.00,,,-99.99,1.0,HOBO +U30 +Weather +,2013-01-10 04:20:00,
2013-01-09 20:25:00,45.9,37.9,29.72,WNW,289,0.7,9.6,73,0.00,,,-99.99,1.0,HOBO +U30 +Weather +,2013-01-10 04:25:00,
2013-01-09 20:30:00,45.8,38.0,29.72,NW,306,1.1,8.5,73,0.00,,,-99.99,1.0,HOBO +U30 +Weather +,2013-01-10 04:30:00,
2013-01-09 20:35:00,46.1,38.2,29.72,WNW,285,2.9,7.8,73,0.00,,,-99.99,1.0,HOBO +U30 +Weather +,2013-01-10 04:35:00,
2013-01-09 20:40:00,45.9,38.1,29.72,West,278,1.8,7.4,73,0.00,,,-99.99,1.0,HOBO +U30 +Weather +,2013-01-10 04:40:00,
2013-01-09 20:45:00,45.7,38.1,29.72,West,271,0.7,6.7,74,0.00,,,-99.99,1.0,HOBO +U30 +Weather +,2013-01-10 04:45:00,
2013-01-09 20:50:00,45.8,38.3,29.72,WNW,286,1.8,7.8,74,0.00,,,-99.99,1.0,HOBO +U30 +Weather +,2013-01-10 04:50:00,
2013-01-09 20:55:00,45.8,38.0,29.73,West,281,1.8,9.6,74,0.00,,,-99.99,1.0,HOBO +U30 +Weather +,2013-01-10 04:55:00,
2013-01-09 21:00:00,45.7,37.9,29.72,West,263,1.8,7.4,74,0.00,,,-99.99,1.0,HOBO +U30 +Weather +,2013-01-10 05:00:00,
2013-01-09 21:05:00,45.6,37.7,29.72,WSW,254,1.8,8.5,73,0.00,,,-99.99,1.0,HOBO +U30 +Weather +,2013-01-10 05:05:00,
2013-01-09 21:10:00,45.7,37.7,29.73,West,270,2.2,8.9,73,0.00,,,-99.99,1.0,HOBO +U30 +Weather +,2013-01-10 05:10:00,
2013-01-09 21:15:00,45.7,37.9,29.73,West,272,2.2,8.9,74,0.00,,,-99.99,1.0,HOBO +U30 +Weather +,2013-01-10 05:15:00,
2013-01-09 21:20:00,45.6,37.9,29.73,West,279,1.8,7.8,74,0.00,,,-99.99,1.0,HOBO +U30 +Weather +,2013-01-10 05:20:00,
2013-01-09 21:25:00,45.4,38.0,29.73,WNW,284,1.1,6.7,75,0.00,,,-99.99,1.0,HOBO +U30 +Weather +,2013-01-10 05:25:00,
2013-01-09 21:30:00,45.6,38.2,29.73,WNW,299,1.8,11.9,75,0.00,,,-99.99,1.0,HOBO +U30 +Weather +,2013-01-10 05:30:00,
2013-01-09 21:35:00,45.4,38.1,29.73,WNW,300,1.1,5.6,75,0.00,,,-99.99,1.0,HOBO +U30 +Weather +,2013-01-10 05:35:00,
2013-01-09 21:40:00,45.6,38.3,29.73,WNW,303,1.8,7.8,75,0.00,,,-99.99,1.0,HOBO +U30 +Weather +,2013-01-10 05:40:00,
2013-01-09 21:45:00,45.6,37.9,29.73,NNW,348,0.7,6.3,74,0.00,,,-99.99,1.0,HOBO +U30 +Weather +,2013-01-10 05:45:00,
2013-01-09 21:50:00,45.6,37.7,29.73,WNW,296,1.8,6.3,73,0.00,,,-99.99,1.0,HOBO +U30 +Weather +,2013-01-10 05:50:00,
2013-01-09 21:55:00,45.6,37.7,29.73,WNW,293,1.1,10.1,73,0.00,,,-99.99,1.0,HOBO +U30 +Weather +,2013-01-10 05:55:00,
2013-01-09 22:00:00,45.4,37.6,29.73,NW,321,1.1,7.8,73,0.00,,,-99.99,1.0,HOBO +U30 +Weather +,2013-01-10 06:00:00,
2013-01-09 22:05:00,44.9,37.4,29.74,West,265,0.0,2.2,74,0.00,,,-99.99,1.0,HOBO +U30 +Weather +,2013-01-10 06:05:00,
2013-01-09 22:10:00,45.0,37.5,29.74,West,268,1.1,5.1,74,0.00,,,-99.99,1.0,HOBO +U30 +Weather +,2013-01-10 06:10:00,
2013-01-09 22:15:00,45.0,37.3,29.74,NW,317,0.7,6.3,74,0.00,,,-99.99,1.0,HOBO +U30 +Weather +,2013-01-10 06:15:00,
2013-01-09 22:20:00,44.9,36.7,29.74,WNW,293,1.1,8.5,72,0.00,,,-99.99,1.0,HOBO +U30 +Weather +,2013-01-10 06:20:00,
2013-01-09 22:25:00,45.1,36.6,29.75,WNW,289,1.8,7.4,71,0.00,,,-99.99,1.0,HOBO +U30 +Weather +,2013-01-10 06:25:00,
2013-01-09 22:30:00,45.0,36.5,29.75,West,271,1.8,6.3,71,0.00,,,-99.99,1.0,HOBO +U30 +Weather +,2013-01-10 06:30:00,
2013-01-09 22:35:00,44.9,37.0,29.74,WNW,286,1.1,8.5,73,0.00,,,-99.99,1.0,HOBO +U30 +Weather +,2013-01-10 06:35:00,
2013-01-09 22:40:00,44.9,37.1,29.75,West,261,2.2,9.6,74,0.00,,,-99.99,1.0,HOBO +U30 +Weather +,2013-01-10 06:40:00,
2013-01-09 22:45:00,44.9,36.8,29.75,West,277,2.9,10.1,73,0.00,,,-99.99,1.0,HOBO +U30 +Weather +,2013-01-10 06:45:00,
2013-01-09 22:50:00,44.8,36.8,29.75,West,265,1.8,8.5,73,0.00,,,-99.99,1.0,HOBO +U30 +Weather +,2013-01-10 06:50:00,
2013-01-09 22:55:00,44.7,37.2,29.75,WSW,247,1.8,6.7,74,0.00,,,-99.99,1.0,HOBO +U30 +Weather +,2013-01-10 06:55:00,
2013-01-09 23:00:00,44.4,37.3,29.75,WSW,244,0.7,5.6,76,0.00,,,-99.99,1.0,HOBO +U30 +Weather +,2013-01-10 07:00:00,
2013-01-09 23:05:00,44.2,37.6,29.75,West,271,0.7,5.1,77,0.00,,,-99.99,1.0,HOBO +U30 +Weather +,2013-01-10 07:05:00,
2013-01-09 23:10:00,44.3,37.8,29.75,WSW,240,1.8,6.3,77,0.00,,,-99.99,1.0,HOBO +U30 +Weather +,2013-01-10 07:10:00,
2013-01-09 23:15:00,44.2,37.7,29.75,WSW,248,1.1,6.3,77,0.00,,,-99.99,1.0,HOBO +U30 +Weather +,2013-01-10 07:15:00,
2013-01-09 23:20:00,44.3,37.8,29.75,WSW,251,1.1,5.6,77,0.00,,,-99.99,1.0,HOBO +U30 +Weather +,2013-01-10 07:20:00,
2013-01-09 23:25:00,44.2,37.7,29.75,West,267,1.1,6.7,77,0.00,,,-99.99,1.0,HOBO +U30 +Weather +,2013-01-10 07:25:00,
2013-01-09 23:30:00,44.3,37.7,29.75,West,279,1.8,7.8,77,0.00,,,-99.99,1.0,HOBO +U30 +Weather +,2013-01-10 07:30:00,
2013-01-09 23:35:00,44.3,37.6,29.75,West,277,1.1,5.6,77,0.00,,,-99.99,1.0,HOBO +U30 +Weather +,2013-01-10 07:35:00,
2013-01-09 23:40:00,44.1,37.6,29.75,WSW,251,0.7,4.0,77,0.00,,,-99.99,1.0,HOBO +U30 +Weather +,2013-01-10 07:40:00,
2013-01-09 23:45:00,44.0,37.7,29.75,WSW,257,0.7,6.3,78,0.00,,,-99.99,1.0,HOBO +U30 +Weather +,2013-01-10 07:45:00,
2013-01-09 23:50:00,44.1,37.7,29.74,West,260,0.7,3.4,77,0.00,,,-99.99,1.0,HOBO +U30 +Weather +,2013-01-10 07:50:00,
2013-01-09 23:55:00,44.0,37.5,29.74,WNW,295,0.0,2.9,78,0.00,,,-99.99,1.0,HOBO +U30 +Weather +,2013-01-10 07:55:00,